NOAA 19 - Orbit

View from above orbital plane
View from above orbital plane
View from above satellite
View from above satellite

Ground track
Ground track

The orbit data is extracted from the following two-line orbital elements,

1 33591U 09005A   13144.50139968  .00000101  00000-0  79813-4 0  8093
2 33591 098.9024 086.7545 0015013 134.1788 340.5326 14.11505260221151
Epoch (UTC): 24 May 2013 12:02:00
Eccentricity: 0.0015013
inclination: 98.9024°
perigee height: 843 km
apogee height: 865 km
right ascension of ascending node: 86.7545°
argument of perigee: 134.1788°
revolutions per day: 14.11505260
mean anomaly at epoch: 340.5326°
orbit number at epoch: 22115

The dashed part of the orbit path shows where the satellite is in the earth's shadow,  

Developed and maintained by Chris Peat, Heavens-Above GmbH. Please read the updated FAQ before sending e-mail. Imprint. DLR